Location: Newark
(48.6461°N, 4.3644°W)
Time: 08:27:51
(UTC+00:00)

Altair - Pass Details

Date: 25 January 2021
Orbit: 1501 x 1682 km, 47.2° (Epoch: 24 February)

Event Time Altitude Azimuth Distance (km) Brightness Sun altitude
Exits shadow 02:41:53 13° 127° (SE) 3,672 9.5 -50.1°
Maximum altitude 02:42:44 13° 122° (ESE) 3,666 9.6 -50.0°
Drops below altitude 10° 02:46:41 10° 98° (E) 3,927 9.9 -49.5°
Sets 02:52:18 0° 74° (ENE) 4,936 10.8 -48.7°
